Weather reports worldwide

Advertisment
Termoli, Italy (16232): temperature & dewpoint: 28.05.2020 12:00:00 - 03.06.2020 12:00:00 (CEST)Termoli, Italy (16232): wind speed: 28.05.2020 12:00:00 - 03.06.2020 12:00:00 (CEST)Termoli, Italy (16232): wind direction: 28.05.2020 12:00:00 - 03.06.2020 12:00:00 (CEST)Termoli, Italy (16232): reduced air pressure: 28.05.2020 12:00:00 - 03.06.2020 12:00:00 (CEST)Termoli, Italy (16232): visibility: 28.05.2020 12:00:00 - 03.06.2020 12:00:00 (CEST)Termoli, Italy (16232): sunshine duration: 28.05.2020 12:00:00 - 03.06.2020 12:00:00 (CEST)
Date & Time tt [°C] td [°C] ff [km/h] ff [kn] dd ppp [hPa] vv [km] sd [min]
03.06.2020 12:00:00 - - - - - - - -
03.06.2020 11:00:00 25,0 11,9 8 4 ENE 1010,0 30 60
03.06.2020 10:00:00 - - - - - - - -
03.06.2020 09:00:00 - - - - - - - -
03.06.2020 08:00:00 20,8 12,2 4 2 SSW 1010,2 30 42
03.06.2020 07:00:00 - - - - - - - -
03.06.2020 06:00:00 - - - - - - - -
03.06.2020 05:00:00 - - - - - - - -
03.06.2020 04:00:00 - - - - - - - -
03.06.2020 03:00:00 - - - - - - - -
03.06.2020 02:00:00 - - - - - - - -
03.06.2020 01:00:00 - - - - - - - -
03.06.2020 00:00:00 - - - - - - - -
02.06.2020 23:00:00 - - - - - - - -
02.06.2020 22:00:00 - - - - - - - -
02.06.2020 21:00:00 - - - - - - - -
02.06.2020 20:00:00 25,0 15,1 4 2 NW 1011,1 30 42
02.06.2020 19:00:00 - - - - - - - -
02.06.2020 18:00:00 - - - - - - - -
02.06.2020 17:00:00 24,6 17,6 8 4 NNW 1012,3 30 60
02.06.2020 16:00:00 - - - - - - - -
02.06.2020 15:00:00 - - - - - - - -
02.06.2020 14:00:00 23,0 16,5 21 11 NNW 1014,1 30 60
02.06.2020 13:00:00 - - - - - - - -
02.06.2020 12:00:00 - - - - - - - -
02.06.2020 11:00:00 22,0 16,1 22 12 NW 1014,2 25 60
02.06.2020 10:00:00 - - - - - - - -
02.06.2020 09:00:00 - - - - - - - -
02.06.2020 08:00:00 18,8 14,3 22 12 WNW 1014,8 20 42
02.06.2020 07:00:00 - - - - - - - -
02.06.2020 06:00:00 - - - - - - - -
02.06.2020 05:00:00 - - - - - - - -
02.06.2020 04:00:00 - - - - - - - -
02.06.2020 03:00:00 - - - - - - - -
02.06.2020 02:00:00 - - - - - - - -
02.06.2020 01:00:00 - - - - - - - -
02.06.2020 00:00:00 - - - - - - - -
01.06.2020 23:00:00 - - - - - - - -
01.06.2020 22:00:00 - - - - - - - -
01.06.2020 21:00:00 - - - - - - - -
01.06.2020 20:00:00 20,2 16,2 22 12 NNW 1015,6 25 36
01.06.2020 19:00:00 - - - - - - - -
01.06.2020 18:00:00 - - - - - - - -
01.06.2020 17:00:00 20,8 15,1 28 15 NW 1016,0 25 60
01.06.2020 16:00:00 - - - - - - - -
01.06.2020 15:00:00 - - - - - - - -
01.06.2020 14:00:00 20,2 15,0 29 16 NNW 1016,4 25 60
01.06.2020 13:00:00 - - - - - - - -
01.06.2020 12:00:00 - - - - - - - -
01.06.2020 11:00:00 18,8 16,0 26 14 N 1016,4 25 60
01.06.2020 10:00:00 - - - - - - - -
01.06.2020 09:00:00 - - - - - - - -
01.06.2020 08:00:00 17,0 14,8 34 18 WNW 1014,9 15 12
01.06.2020 07:00:00 - - - - - - - -
01.06.2020 06:00:00 - - - - - - - -
01.06.2020 05:00:00 - - - - - - - -
01.06.2020 04:00:00 - - - - - - - -
01.06.2020 03:00:00 - - - - - - - -
01.06.2020 02:00:00 - - - - - - - -
01.06.2020 01:00:00 - - - - - - - -
01.06.2020 00:00:00 - - - - - - - -
31.05.2020 23:00:00 - - - - - - - -
31.05.2020 22:00:00 - - - - - - - -
31.05.2020 21:00:00 - - - - - - - -
31.05.2020 20:00:00 18,8 11,6 11 6 NW 1014,1 20 0
31.05.2020 19:00:00 - - - - - - - -
31.05.2020 18:00:00 - - - - - - - -
31.05.2020 17:00:00 20,4 15,2 13 7 NNW 1014,6 25 60
31.05.2020 16:00:00 - - - - - - - -
31.05.2020 15:00:00 - - - - - - - -
31.05.2020 14:00:00 18,4 16,0 11 6 N 1015,3 15 60
31.05.2020 13:00:00 - - - - - - - -
31.05.2020 12:00:00 - - - - - - - -
31.05.2020 11:00:00 18,2 16,0 21 11 NNW 1015,4 15 12
31.05.2020 10:00:00 - - - - - - - -
31.05.2020 09:00:00 - - - - - - - -
31.05.2020 08:00:00 15,8 13,7 18 10 WNW 1015,1 25 24
31.05.2020 07:00:00 - - - - - - - -
31.05.2020 06:00:00 - - - - - - - -
31.05.2020 05:00:00 - - - - - - - -
31.05.2020 04:00:00 - - - - - - - -
31.05.2020 03:00:00 - - - - - - - -
31.05.2020 02:00:00 - - - - - - - -
31.05.2020 01:00:00 - - - - - - - -
31.05.2020 00:00:00 - - - - - - - -
30.05.2020 23:00:00 - - - - - - - -
30.05.2020 22:00:00 - - - - - - - -
30.05.2020 21:00:00 - - - - - - - -
30.05.2020 20:00:00 18,6 15,7 4 2 N 1015,0 20 0
30.05.2020 19:00:00 - - - - - - - -
30.05.2020 18:00:00 - - - - - - - -
30.05.2020 17:00:00 16,4 13,1 8 4 W 1015,3 20 0
30.05.2020 16:00:00 - - - - - - - -
30.05.2020 15:00:00 - - - - - - - -
30.05.2020 14:00:00 16,6 13,7 8 4 N 1015,5 20 0
30.05.2020 13:00:00 - - - - - - - -
30.05.2020 12:00:00 - - - - - - - -
30.05.2020 11:00:00 17,2 14,3 4 2 ENE 1016,1 25 18
30.05.2020 10:00:00 - - - - - - - -
30.05.2020 09:00:00 - - - - - - - -
30.05.2020 08:00:00 13,8 12,0 9 5 SSE 1016,4 25 0
30.05.2020 07:00:00 - - - - - - - -
30.05.2020 06:00:00 - - - - - - - -
30.05.2020 05:00:00 - - - - - - - -
30.05.2020 04:00:00 - - - - - - - -
30.05.2020 03:00:00 - - - - - - - -
30.05.2020 02:00:00 - - - - - - - -
30.05.2020 01:00:00 - - - - - - - -
30.05.2020 00:00:00 - - - - - - - -
29.05.2020 23:00:00 - - - - - - - -
29.05.2020 22:00:00 - - - - - - - -
29.05.2020 21:00:00 - - - - - - - -
29.05.2020 20:00:00 17,4 14,5 31 17 NNW 1017,4 20 0
29.05.2020 19:00:00 - - - - - - - -
29.05.2020 18:00:00 - - - - - - - -
29.05.2020 17:00:00 21,4 17,0 18 10 NW 1017,5 25 12
29.05.2020 16:00:00 - - - - - - - -
29.05.2020 15:00:00 - - - - - - - -
29.05.2020 14:00:00 18,4 14,5 18 10 N 1018,4 25 60
29.05.2020 13:00:00 - - - - - - - -
29.05.2020 12:00:00 - - - - - - - -
29.05.2020 11:00:00 20,0 15,7 21 11 NW 1019,1 25 48
29.05.2020 10:00:00 - - - - - - - -
29.05.2020 09:00:00 - - - - - - - -
29.05.2020 08:00:00 17,0 9,9 18 10 WNW 1018,9 25 0
29.05.2020 07:00:00 - - - - - - - -
29.05.2020 06:00:00 - - - - - - - -
29.05.2020 05:00:00 - - - - - - - -
29.05.2020 04:00:00 - - - - - - - -
29.05.2020 03:00:00 - - - - - - - -
29.05.2020 02:00:00 - - - - - - - -
29.05.2020 01:00:00 - - - - - - - -
29.05.2020 00:00:00 - - - - - - - -
28.05.2020 23:00:00 - - - - - - - -
28.05.2020 22:00:00 - - - - - - - -
28.05.2020 21:00:00 - - - - - - - -
28.05.2020 20:00:00 20,4 13,4 21 11 NW 1020,1 30 6
28.05.2020 19:00:00 - - - - - - - -
28.05.2020 18:00:00 - - - - - - - -
28.05.2020 17:00:00 21,0 14,2 26 14 NNW 1021,3 25 6
28.05.2020 16:00:00 - - - - - - - -
28.05.2020 15:00:00 - - - - - - - -
28.05.2020 14:00:00 21,2 16,4 28 15 NW 1022,5 25 60
28.05.2020 13:00:00 - - - - - - - -
28.05.2020 12:00:00 - - - - - - - -

tt = temperature
td = dewpoint
ff = wind speed
dd = wind direction
ppp = reduced air pressure
vv = visibility
sd = sunshine duration

Next stations